Location: B?dargowo
(53.3916°N, 14.4413°E)
Time: 09:26:46
(UTC+00:00)

IRIDIUM 103 - Pass Details

Date: 05 February 2023
Orbit: 776 x 779 km, 86.4° (Epoch: 19 March)

Event Time Altitude Azimuth Distance (km) Brightness Sun altitude
Rises 17:36:25 0° 355° (N) 3,278 7.6 -15.6°
Reaches altitude 10° 17:38:47 10° 356° (N) 2,345 6.8 -16.0°
Maximum altitude 17:44:03 88° 86° (E) 787 4.3 -16.8°
Drops below altitude 10° 17:49:16 10° 176° (S) 2,326 6.8 -17.5°
Sets 17:51:36 0° 177° (S) 3,248 7.6 -17.9°
